(671076) 2014 FP47 |
ephemeris |
date |
magn |
radius |
delta |
ra |
dec |
elong |
phase |
Today | 18 Oct 2025 | 24.5 | 0.899 AU | 1.639 AU | 15h19m | -20°43' | 28.5° | 31.9° |
(671076) 2014 FP47 - 2025-10-18
astro.vanbuitenen.nl
The interactive orbit chart above shows the body's path through the solar system and its position at the given date.
Green and blue lines are shown perpendicular to the ecliptic plane: Green if the path is above the ecliptic plane, blue if it is below.
(Left-click and drag to rotate the view; Right-click and drag to move the view; Use scroll wheel to zoom in our out.)
The orbital elements of 2014 FP47 are:
e (Eccentricity) : 0.2600642
a (Semimajor axis) : 1.1679460
i (Inclination) : 5.05619
Ω (Longitude of ascending node) : 28.69956
ω (Argument of perihelion) : 271.89876
M (Mean anomaly) : 209.57704
Epoch : 2025 May 05
L (Longitude of perihelion) : -59.39427
B (Latitude of perihelion) : -5.05341
P (Orbital period in years) : 1.26
The light curve chart below shows the estimated development of the minor planet's magnitude.
The all-sky chart below shows the path of the minor planet over the same period as the light curve. The current position is marked yellow.
The following chart shows the path of the minor planet in the next few days. The field of view is optimized for (~10x50) binoculars and finderscopes.
Ephemerides:
Date Time RA (2000) DEC (2000) delta radius elong phase PA magn
2025-10-18 00:00 UT 15 19 28.2 -20 43 08 1.639 0.899 28.5 31.9 109 24.5
2025-10-18 03:47 UT 15 20 10.1 -20 46 03 1.639 0.899 28.5 31.9 109 24.5
2025-10-19 00:00 UT 15 23 54.9 -21 01 34 1.635 0.897 28.6 32.1 109 24.5
2025-10-20 00:00 UT 15 28 23.7 -21 19 39 1.630 0.894 28.7 32.3 109 24.5
2025-10-21 00:00 UT 15 32 54.7 -21 37 21 1.625 0.892 28.7 32.5 108 24.5
2025-10-22 00:00 UT 15 37 27.9 -21 54 39 1.621 0.890 28.9 32.7 108 24.5
2025-10-23 00:00 UT 15 42 03.3 -22 11 32 1.616 0.888 29.0 32.9 107 24.5
2025-10-24 00:00 UT 15 46 40.9 -22 27 60 1.611 0.886 29.1 33.1 107 24.5
2025-10-25 00:00 UT 15 51 20.6 -22 44 01 1.607 0.884 29.2 33.3 107 24.5
Terminology:
delta: distance between minor planet and earth in AU
radius: distance between minor planet and sun in AU
magn: magnitude (brightness) estimate
ra: right ascension in hours (24h = 360deg)
dec: declination in degrees
elong: elongation in degrees (angle sun-earth-minor planet)
phase: phase angle in degrees (angle sun-minor planet-earth)
AU: Astronomical Unit (mean distance between earth and sun: 149597870.7 km
Orbital elements provided by the MPC (Minor Planet Center).
Calculations by a modified version of AAPlus, a C# implementation of the AA+ project by PJ Naughter from the algorithms presented in the book "Astronomical Algorithms" by Jean Meeus.
NGC2000 dso catalog and star labels from VizieR as provided by the Strasbourg astronomical Data Center.
Tycho2 catalog from the ESO archive.